User: anonymous   Login
Location: Fort Wayne
(41.1310°N, 85.1290°W)
Time: 10:57:41
(UTC-04:00)
Language:

Cosmos 2227 Rocket - Orbit

View from above orbital plane
View from above orbital plane
View from above satellite
View from above satellite

Ground track
Ground track

The orbit data is extracted from the following two-line orbital elements,

1 22285U 92093B   16146.48747851  .00000171  00000-0  11298-3 0  9997
2 22285  71.0212 305.5685 0004596 332.6841  27.4040 14.14992540207697
Epoch (UTC): 25 May 2016 11:41:58
Eccentricity: 0.0004596
inclination: 71.0212°
perigee height: 839 km
apogee height: 845 km
right ascension of ascending node: 305.5685°
argument of perigee: 332.6841°
revolutions per day: 14.14992540
mean anomaly at epoch: 27.4040°
orbit number at epoch: 20769

The dashed part of the orbit path shows where the satellite is in the earth's shadow,  

DLR